This is the latest recevied weather packets stored in our database for station/object KD4EED. If no packets are shown the sender has not sent any weather packets the latest 10 day(s).
| Time | Temp. | Humidity | Pressure | Rain* | Wind** | Luminosity | Snow |
|---|---|---|---|---|---|---|---|
| 1788103665 | 22.22° C | 84% | 1009.9 hPa | - | - | 44 W/m² | - |
| 1788103360 | 22.22° C | 85% | 1009.9 hPa | - | - | 41 W/m² | - |
| 1788103059 | 21.67° C | 86% | 1010.1 hPa | - | - | 37 W/m² | - |
| 1788102759 | 21.67° C | 89% | 1009.9 hPa | - | - | 38 W/m² | - |
| 1788102454 | 21.11° C | 89% | 1010 hPa | - | - | 36 W/m² | - |
| 1788102154 | 21.11° C | 90% | 1010.3 hPa | - | - | 36 W/m² | - |
| 1788101849 | 20.56° C | 91% | 1010.2 hPa | - | - | 33 W/m² | - |
| 1788101544 | 20.56° C | 91% | 1009.9 hPa | - | - | 28 W/m² | - |
| 1788101244 | 20° C | 91% | 1009.8 hPa | - | - | 26 W/m² | - |
| 1788100940 | 20° C | 92% | 1009.8 hPa | - | - | 23 W/m² | - |
| 1788100636 | 20° C | 92% | 1009.9 hPa | - | - | 21 W/m² | - |
| 1788100334 | 20° C | 92% | 1009.9 hPa | - | - | 21 W/m² | - |
| 1788100029 | 20° C | 92% | 1009.8 hPa | - | - | 20 W/m² | - |
| 1788099724 | 20° C | 92% | 1009.7 hPa | - | - | 18 W/m² | - |
| 1788099419 | 19.44° C | 92% | 1009.6 hPa | - | - | 14 W/m² | - |
| 1788099114 | 19.44° C | 92% | 1009.7 hPa | - | - | 15 W/m² | - |
| 1788098809 | 19.44° C | 92% | 1009.7 hPa | - | - | 15 W/m² | - |
| 1788098504 | 19.44° C | 92% | 1009.5 hPa | - | - | 11 W/m² | - |
| 1788098199 | 19.44° C | 92% | 1009.5 hPa | - | - | 9 W/m² | - |
| 1788097894 | 19.44° C | 92% | 1009.5 hPa | - | - | 7 W/m² | - |
| 1788097590 | 20° C | 92% | 1009.3 hPa | - | - | 5 W/m² | - |
| 1788097285 | 20° C | 92% | 1009.3 hPa | - | - | 5 W/m² | - |
| 1788096981 | 20° C | 92% | 1009.2 hPa | - | - | 4 W/m² | - |
| 1788096682 | 20° C | 92% | 1009.3 hPa | - | - | 3 W/m² | - |
| 1788095766 | 20° C | 91% | 1009 hPa | - | - | 0 W/m² | - |
* Rain since midnight (hover to see other rain measurements)
** Current wind speed in m/s (hover to see current wind gust speed)